TimeAST,TemperatureF,Dew PointF,Humidity,Sea Level PressureIn,VisibilityMPH,Wind Direction,Wind SpeedMPH,Gust SpeedMPH,PrecipitationIn,Events,Conditions,WindDirDegrees,DateUTC
12:00 AM,63,54,66,30.07,7,NNW,11.5,,,Rain,Light Rain,330,2014-02-08 21:00:00
12:00 AM,62.6,55.4,77,30.06,6.2,NNW,11.5,-,N/A,,Mostly Cloudy,330,2014-02-08 21:00:00
12:30 AM,62.6,55.4,77,30.06,6.2,NNW,11.5,-,N/A,Rain,Light Rain,330,2014-02-08 21:30:00
1:00 AM,60.8,55.4,82,30.06,5.0,NW,9.2,-,N/A,Rain,Light Rain,310,2014-02-08 22:00:00
1:30 AM,59.0,57.2,94,30.06,5.0,NW,12.7,-,N/A,Rain,Light Rain,320,2014-02-08 22:30:00
2:00 AM,59.0,55.4,88,30.06,5.0,NNW,8.1,-,N/A,Rain,Light Rain,330,2014-02-08 23:00:00
2:30 AM,59.0,53.6,82,30.06,5.6,NW,5.8,-,N/A,Rain,Light Rain,310,2014-02-08 23:30:00
3:00 AM,60,54,76,30.07,6,NW,3.5,,,Rain,Light Rain,320,2014-02-09 00:00:00
3:00 AM,59.0,53.6,82,30.06,6.2,NW,3.5,-,N/A,Rain,Light Rain,320,2014-02-09 00:00:00
3:30 AM,60.8,53.6,77,30.06,6.2,WNW,4.6,-,N/A,,Mostly Cloudy,300,2014-02-09 00:30:00
4:00 AM,60.8,53.6,77,30.06,6.2,NW,5.8,-,N/A,,Mostly Cloudy,320,2014-02-09 01:00:00
4:30 AM,60.8,53.6,77,30.06,6.2,NNW,8.1,-,N/A,,Mostly Cloudy,330,2014-02-09 01:30:00
5:00 AM,60.8,53.6,77,30.06,-9999.0,NW,6.9,-,N/A,,Clear,310,2014-02-09 02:00:00
5:30 AM,60.8,53.6,77,30.09,-9999.0,NW,8.1,-,N/A,,Clear,310,2014-02-09 02:30:00
6:00 AM,61,51,61,30.11,6,WNW,6.9,,,,Overcast,300,2014-02-09 03:00:00
6:00 AM,60.8,51.8,72,30.09,6.2,WNW,6.9,-,N/A,,Mostly Cloudy,300,2014-02-09 03:00:00
6:30 AM,60.8,51.8,72,30.12,6.2,WNW,10.4,-,N/A,,Mostly Cloudy,300,2014-02-09 03:30:00
7:00 AM,60.8,51.8,72,30.12,6.2,NW,8.1,-,N/A,,Overcast,310,2014-02-09 04:00:00
7:30 AM,60.8,51.8,72,30.15,6.2,NW,10.4,-,N/A,Rain,Rain,310,2014-02-09 04:30:00
8:00 AM,60.8,53.6,77,30.15,5.0,WNW,10.4,-,N/A,Rain,Light Rain,300,2014-02-09 05:00:00
8:30 AM,60.8,53.6,77,30.15,4.3,WNW,8.1,-,N/A,,Scattered Clouds,300,2014-02-09 05:30:00
9:00 AM,61,53,67,30.19,4,NW,8.1,,,,Haze,310,2014-02-09 06:00:00
9:00 AM,60.8,53.6,77,30.18,4.3,NW,8.1,-,N/A,,Overcast,310,2014-02-09 06:00:00
9:30 AM,60.8,51.8,72,30.18,4.3,NW,11.5,-,N/A,Rain,Light Rain,310,2014-02-09 06:30:00
10:00 AM,60.8,51.8,72,30.18,4.3,WNW,6.9,-,N/A,,Overcast,300,2014-02-09 07:00:00
10:30 AM,60.8,51.8,72,30.15,4.3,NW,9.2,-,N/A,Rain,Light Rain,310,2014-02-09 07:30:00
11:00 AM,60.8,51.8,72,30.15,4.3,WNW,12.7,-,N/A,,Mostly Cloudy,300,2014-02-09 08:00:00
11:30 AM,62.6,51.8,68,30.15,4.3,NW,10.4,-,N/A,,Mostly Cloudy,320,2014-02-09 08:30:00
12:00 PM,64,52,55,30.13,6,NNW,12.7,,,,Haze,330,2014-02-09 09:00:00
12:00 PM,64.4,51.8,64,30.12,5.6,NNW,12.7,-,N/A,,Mostly Cloudy,330,2014-02-09 09:00:00
12:30 PM,66.2,50.0,56,30.09,6.2,North,12.7,-,N/A,,Mostly Cloudy,350,2014-02-09 09:30:00
1:00 PM,66.2,48.2,52,30.09,-9999.0,NNW,13.8,-,N/A,,Clear,340,2014-02-09 10:00:00
1:30 PM,68.0,48.2,49,30.06,-9999.0,NNW,12.7,-,N/A,,Clear,330,2014-02-09 10:30:00
2:00 PM,68.0,48.2,49,30.06,-9999.0,NNW,13.8,-,N/A,,Clear,330,2014-02-09 11:00:00
2:30 PM,68.0,46.4,46,30.06,-9999.0,NNW,12.7,-,N/A,,Clear,340,2014-02-09 11:30:00
3:00 PM,68,47,37,30.09,7,NNW,12.7,,,,Partly Cloudy,330,2014-02-09 12:00:00
3:00 PM,68.0,48.2,49,30.06,-9999.0,NNW,12.7,-,N/A,,Clear,330,2014-02-09 12:00:00
3:30 PM,68.0,50.0,52,30.06,-9999.0,NNW,12.7,-,N/A,,Clear,330,2014-02-09 12:30:00
4:00 PM,66.2,44.6,46,30.09,-9999.0,NNW,12.7,-,N/A,,Clear,330,2014-02-09 13:00:00
4:30 PM,66.2,44.6,46,30.09,-9999.0,NNW,17.3,-,N/A,,Clear,340,2014-02-09 13:30:00
5:00 PM,66.2,44.6,46,30.09,-9999.0,NW,12.7,-,N/A,,Clear,320,2014-02-09 14:00:00
5:30 PM,64.4,44.6,49,30.09,-9999.0,NNW,12.7,-,N/A,,Clear,330,2014-02-09 14:30:00
6:00 PM,64,46,41,30.12,9,NW,10.4,,,,,320,2014-02-09 15:00:00
6:00 PM,64.4,46.4,52,30.09,-9999.0,NW,10.4,-,N/A,,Clear,320,2014-02-09 15:00:00
6:30 PM,62.6,46.4,55,30.12,-9999.0,NW,12.7,-,N/A,,Clear,320,2014-02-09 15:30:00
7:00 PM,62.6,46.4,55,30.12,-9999.0,NNW,11.5,-,N/A,,Clear,330,2014-02-09 16:00:00
7:30 PM,60.8,46.4,59,30.12,-9999.0,NNW,12.7,-,N/A,,Clear,330,2014-02-09 16:30:00
8:00 PM,60.8,46.4,59,30.15,-9999.0,NW,12.7,-,N/A,,Clear,320,2014-02-09 17:00:00
8:30 PM,60.8,46.4,59,30.15,-9999.0,NW,10.4,-,N/A,,Clear,320,2014-02-09 17:30:00
9:00 PM,60,46,49,30.16,10,NW,9.2,,,,,310,2014-02-09 18:00:00
9:00 PM,60.8,46.4,59,30.15,-9999.0,NW,9.2,-,N/A,,Clear,310,2014-02-09 18:00:00
9:30 PM,60.8,46.4,59,30.15,-9999.0,NW,9.2,-,N/A,,Clear,310,2014-02-09 18:30:00
10:00 PM,59.0,46.4,63,30.15,-9999.0,NW,9.2,-,N/A,,Clear,310,2014-02-09 19:00:00
10:30 PM,59.0,46.4,63,30.15,-9999.0,NW,8.1,-,N/A,,Clear,320,2014-02-09 19:30:00
11:00 PM,59.0,46.4,63,30.12,-9999.0,NW,9.2,-,N/A,,Clear,320,2014-02-09 20:00:00
11:30 PM,59.0,46.4,63,30.12,-9999.0,NW,9.2,-,N/A,,Clear,320,2014-02-09 20:30:00